Year,Month,Day,Hour,Minute,Value (Times are PST for temperature in C)
2016,06,05,00,00,17.90
2016,06,05,00,01,17.90
2016,06,05,00,02,17.90
2016,06,05,00,03,17.90
2016,06,05,00,04,17.90
2016,06,05,00,05,17.90
2016,06,05,00,06,17.80
2016,06,05,00,07,17.80
2016,06,05,00,08,17.80
2016,06,05,00,09,17.80
2016,06,05,00,10,17.80
2016,06,05,00,11,17.80
2016,06,05,00,12,17.80
2016,06,05,00,13,17.80
2016,06,05,00,14,17.70
2016,06,05,00,15,17.70
2016,06,05,00,16,17.70
2016,06,05,00,17,17.70
2016,06,05,00,18,17.70
2016,06,05,00,19,17.70
2016,06,05,00,20,17.70
2016,06,05,00,21,17.70
2016,06,05,00,22,17.70
2016,06,05,00,23,17.70
2016,06,05,00,24,17.70
2016,06,05,00,25,17.70
2016,06,05,00,26,17.70
2016,06,05,00,27,17.70
2016,06,05,00,28,17.70
2016,06,05,00,29,17.70
2016,06,05,00,30,17.70
2016,06,05,00,31,17.70
2016,06,05,00,32,17.70
2016,06,05,00,33,17.70
2016,06,05,00,34,17.70
2016,06,05,00,35,17.60
2016,06,05,00,36,17.60
2016,06,05,00,37,17.60
2016,06,05,00,38,17.60
2016,06,05,00,39,17.60
2016,06,05,00,40,17.50
2016,06,05,00,41,17.50
2016,06,05,00,42,17.50
2016,06,05,00,43,17.50
2016,06,05,00,44,17.50
2016,06,05,00,45,17.40
2016,06,05,00,46,17.40
2016,06,05,00,47,17.40
2016,06,05,00,48,17.40
2016,06,05,00,49,17.40
2016,06,05,00,50,17.40
2016,06,05,00,51,17.40
2016,06,05,00,52,17.40
2016,06,05,00,53,17.40
2016,06,05,00,54,17.40
2016,06,05,00,55,17.30
2016,06,05,00,56,17.30
2016,06,05,00,57,17.30
2016,06,05,00,58,17.30
2016,06,05,00,59,17.30
2016,06,05,01,00,17.30
2016,06,05,01,01,17.30
2016,06,05,01,02,17.30
2016,06,05,01,03,17.20
2016,06,05,01,04,17.20
2016,06,05,01,05,17.20
2016,06,05,01,06,17.20
2016,06,05,01,07,17.20
2016,06,05,01,08,17.20
2016,06,05,01,09,17.10
2016,06,05,01,10,17.10
2016,06,05,01,11,17.10
2016,06,05,01,12,17.10
2016,06,05,01,13,17.10
2016,06,05,01,14,17.10
2016,06,05,01,15,17.10
2016,06,05,01,16,17.10
2016,06,05,01,17,17.10
2016,06,05,01,18,17.10
2016,06,05,01,19,17.10
2016,06,05,01,20,17.10
2016,06,05,01,21,17.10
2016,06,05,01,22,17.00
2016,06,05,01,23,17.00
2016,06,05,01,24,17.00
2016,06,05,01,25,17.00
2016,06,05,01,26,17.00
2016,06,05,01,27,17.00
2016,06,05,01,28,17.00
2016,06,05,01,29,17.00
2016,06,05,01,30,17.00
2016,06,05,01,31,17.00
2016,06,05,01,32,16.90
2016,06,05,01,33,16.90
2016,06,05,01,34,16.90
2016,06,05,01,35,16.90
2016,06,05,01,36,16.80
2016,06,05,01,37,16.80
2016,06,05,01,38,16.80
2016,06,05,01,39,16.80
2016,06,05,01,40,16.80
2016,06,05,01,41,16.80
2016,06,05,01,42,16.80
2016,06,05,01,43,16.80
2016,06,05,01,44,16.80
2016,06,05,01,45,16.80
2016,06,05,01,46,16.80
2016,06,05,01,47,16.80
2016,06,05,01,48,16.80
2016,06,05,01,49,16.80
2016,06,05,01,50,16.80
2016,06,05,01,51,16.80
2016,06,05,01,52,16.80
2016,06,05,01,53,16.80
2016,06,05,01,54,16.80
2016,06,05,01,55,16.80
2016,06,05,01,56,16.80
2016,06,05,01,57,16.80
2016,06,05,01,58,16.80
2016,06,05,01,59,16.80
2016,06,05,02,00,16.80
2016,06,05,02,01,16.80
2016,06,05,02,02,16.80
2016,06,05,02,03,16.80
2016,06,05,02,04,16.80
2016,06,05,02,05,16.80
2016,06,05,02,06,16.70
2016,06,05,02,07,16.70
2016,06,05,02,08,16.70
2016,06,05,02,09,16.70
2016,06,05,02,10,16.70
2016,06,05,02,11,16.70
2016,06,05,02,12,16.70
2016,06,05,02,13,16.70
2016,06,05,02,14,16.70
2016,06,05,02,15,16.70
2016,06,05,02,16,16.70
2016,06,05,02,17,16.70
2016,06,05,02,18,16.70
2016,06,05,02,19,16.70
2016,06,05,02,20,16.70
2016,06,05,02,21,16.70
2016,06,05,02,22,16.70
2016,06,05,02,23,16.70
2016,06,05,02,24,16.70
2016,06,05,02,25,16.70
2016,06,05,02,26,16.70
2016,06,05,02,27,16.70
2016,06,05,02,28,16.70
2016,06,05,02,29,16.70
2016,06,05,02,30,16.70
2016,06,05,02,31,16.60
2016,06,05,02,32,16.60
2016,06,05,02,33,16.60
2016,06,05,02,34,16.60
2016,06,05,02,35,16.60
2016,06,05,02,36,16.60
2016,06,05,02,37,16.60
2016,06,05,02,38,16.60
2016,06,05,02,39,16.60
2016,06,05,02,40,16.60
2016,06,05,02,41,16.60
2016,06,05,02,42,16.60
2016,06,05,02,43,16.60
2016,06,05,02,44,16.60
2016,06,05,02,45,16.60
2016,06,05,02,46,16.60
2016,06,05,02,47,16.60
2016,06,05,02,48,16.60
2016,06,05,02,49,16.60
2016,06,05,02,50,16.60
2016,06,05,02,51,16.60
2016,06,05,02,52,16.50
2016,06,05,02,53,16.50
2016,06,05,02,54,16.50
2016,06,05,02,55,16.50
2016,06,05,02,56,16.50
2016,06,05,02,57,16.50
2016,06,05,02,58,16.50
2016,06,05,02,59,16.50
2016,06,05,03,00,16.60
2016,06,05,03,01,16.60
2016,06,05,03,02,16.60
2016,06,05,03,03,16.60
2016,06,05,03,04,16.60
2016,06,05,03,05,16.50
2016,06,05,03,06,16.50
2016,06,05,03,07,16.50
2016,06,05,03,08,16.50
2016,06,05,03,09,16.50
2016,06,05,03,10,16.40
2016,06,05,03,11,16.40
2016,06,05,03,12,16.40
2016,06,05,03,13,16.40
2016,06,05,03,14,16.40
2016,06,05,03,15,16.40
2016,06,05,03,16,16.30
2016,06,05,03,17,16.30
2016,06,05,03,18,16.30
2016,06,05,03,19,16.30
2016,06,05,03,20,16.30
2016,06,05,03,21,16.20
2016,06,05,03,22,16.20
2016,06,05,03,23,16.20
2016,06,05,03,24,16.20
2016,06,05,03,25,16.20
2016,06,05,03,26,16.20
2016,06,05,03,27,16.20
2016,06,05,03,28,16.20
2016,06,05,03,29,16.30
2016,06,05,03,30,16.30
2016,06,05,03,31,16.30
2016,06,05,03,32,16.30
2016,06,05,03,33,16.30
2016,06,05,03,34,16.20
2016,06,05,03,35,16.20
2016,06,05,03,36,16.20
2016,06,05,03,37,16.20
2016,06,05,03,38,16.20
2016,06,05,03,39,16.20
2016,06,05,03,40,16.20
2016,06,05,03,41,16.20
2016,06,05,03,42,16.20
2016,06,05,03,43,16.30
2016,06,05,03,44,16.30
2016,06,05,03,45,16.30
2016,06,05,03,46,16.30
2016,06,05,03,47,16.30
2016,06,05,03,48,16.30
2016,06,05,03,49,16.30
2016,06,05,03,50,16.30
2016,06,05,03,51,16.30
2016,06,05,03,52,16.20
2016,06,05,03,53,16.20
2016,06,05,03,54,16.20
2016,06,05,03,55,16.20
2016,06,05,03,56,16.20
2016,06,05,03,57,16.20
2016,06,05,03,58,16.20
2016,06,05,03,59,16.20
2016,06,05,04,00,16.20
2016,06,05,04,01,16.20
2016,06,05,04,02,16.20
2016,06,05,04,03,16.20
2016,06,05,04,04,16.20
2016,06,05,04,08,16.20
2016,06,05,04,09,16.10
2016,06,05,04,10,16.10
2016,06,05,04,11,16.10
2016,06,05,04,12,16.10
2016,06,05,04,13,16.10
2016,06,05,04,14,16.10
2016,06,05,04,15,16.00
2016,06,05,04,16,16.00
2016,06,05,04,17,16.00
2016,06,05,04,18,16.00
2016,06,05,04,19,16.00
2016,06,05,04,20,16.00
2016,06,05,04,21,16.00
2016,06,05,04,22,16.00
2016,06,05,04,23,16.00
2016,06,05,04,24,16.00
2016,06,05,04,25,15.90
2016,06,05,04,26,15.90
2016,06,05,04,27,15.90
2016,06,05,04,28,15.90
2016,06,05,04,29,15.90
2016,06,05,04,30,15.90
2016,06,05,04,31,15.90
2016,06,05,04,32,15.90
2016,06,05,04,33,16.00
2016,06,05,04,34,16.00
2016,06,05,04,35,16.00
2016,06,05,04,36,16.00
2016,06,05,04,37,16.00
2016,06,05,04,38,16.10
2016,06,05,04,39,16.10
2016,06,05,04,40,16.10
2016,06,05,04,41,16.10
2016,06,05,04,42,16.10
2016,06,05,04,43,16.10
2016,06,05,04,44,16.10
2016,06,05,04,45,16.10
2016,06,05,04,46,16.10
2016,06,05,04,47,16.10
2016,06,05,04,48,16.10
2016,06,05,04,49,16.10
2016,06,05,04,50,16.10
2016,06,05,04,51,16.10
2016,06,05,04,52,16.10
2016,06,05,04,53,16.00
2016,06,05,04,54,16.00
2016,06,05,04,55,16.00
2016,06,05,04,56,16.00
2016,06,05,04,57,16.00
2016,06,05,04,58,16.00
2016,06,05,04,59,16.00
2016,06,05,05,00,16.00
2016,06,05,05,01,16.00
2016,06,05,05,02,16.00
2016,06,05,05,03,16.00
2016,06,05,05,04,16.00
2016,06,05,05,05,16.00
2016,06,05,05,06,16.00
2016,06,05,05,07,16.10
2016,06,05,05,08,16.10
2016,06,05,05,09,16.10
2016,06,05,05,10,16.10
2016,06,05,05,11,16.10
2016,06,05,05,12,16.10
2016,06,05,05,13,16.10
2016,06,05,05,14,16.10
2016,06,05,05,15,16.00
2016,06,05,05,16,16.00
2016,06,05,05,17,16.00
2016,06,05,05,18,16.00
2016,06,05,05,19,16.00
2016,06,05,05,20,16.00
2016,06,05,05,21,16.00
2016,06,05,05,22,16.00
2016,06,05,05,23,16.00
2016,06,05,05,24,16.00
2016,06,05,05,25,16.00
2016,06,05,05,26,16.10
2016,06,05,05,27,16.10
2016,06,05,05,28,16.10
2016,06,05,05,29,16.00
2016,06,05,05,30,16.10
2016,06,05,05,31,16.00
2016,06,05,05,32,16.00
2016,06,05,05,33,16.00
2016,06,05,05,34,16.00
2016,06,05,05,35,16.00
2016,06,05,05,36,16.00
2016,06,05,05,37,16.00
2016,06,05,05,38,16.00
2016,06,05,05,39,16.00
2016,06,05,05,40,16.00
2016,06,05,05,41,16.00
2016,06,05,05,42,15.90
2016,06,05,05,43,15.90
2016,06,05,05,44,15.90
2016,06,05,05,45,15.90
2016,06,05,05,46,15.90
2016,06,05,05,47,15.90
2016,06,05,05,48,15.90
2016,06,05,05,49,15.90
2016,06,05,05,50,15.90
2016,06,05,05,51,15.90
2016,06,05,05,52,15.90
2016,06,05,05,53,15.90
2016,06,05,05,54,15.90
2016,06,05,05,55,15.90
2016,06,05,05,56,15.90
2016,06,05,05,57,15.90
2016,06,05,05,58,16.00
2016,06,05,05,59,16.00
2016,06,05,06,00,16.00
2016,06,05,06,01,16.00
2016,06,05,06,02,16.00
2016,06,05,06,03,16.00
2016,06,05,06,04,16.00
2016,06,05,06,05,16.00
2016,06,05,06,06,16.10
2016,06,05,06,07,16.10
2016,06,05,06,08,16.10
2016,06,05,06,09,16.10
2016,06,05,06,10,16.10
2016,06,05,06,11,16.10
2016,06,05,06,12,16.20
2016,06,05,06,13,16.20
2016,06,05,06,14,16.20
2016,06,05,06,15,16.20
2016,06,05,06,16,16.20
2016,06,05,06,17,16.20
2016,06,05,06,18,16.20
2016,06,05,06,19,16.20
2016,06,05,06,20,16.30
2016,06,05,06,21,16.30
2016,06,05,06,22,16.40
2016,06,05,06,23,16.40
2016,06,05,06,24,16.50
2016,06,05,06,25,16.50
2016,06,05,06,26,16.60
2016,06,05,06,27,16.70
2016,06,05,06,28,16.70
2016,06,05,06,29,16.80
2016,06,05,06,30,16.90
2016,06,05,06,31,16.90
2016,06,05,06,32,17.00
2016,06,05,06,33,17.10
2016,06,05,06,34,17.20
2016,06,05,06,35,17.30
2016,06,05,06,36,17.40
2016,06,05,06,37,17.50
2016,06,05,06,38,17.70
2016,06,05,06,39,17.70
2016,06,05,06,40,17.80
2016,06,05,06,41,17.80
2016,06,05,06,42,17.90
2016,06,05,06,43,17.90
2016,06,05,06,44,18.00
2016,06,05,06,45,18.00
2016,06,05,06,46,18.00
2016,06,05,06,47,18.10
2016,06,05,06,48,18.10
2016,06,05,06,49,18.10
2016,06,05,06,50,18.20
2016,06,05,06,51,18.20
2016,06,05,06,52,18.20
2016,06,05,06,53,18.30
2016,06,05,06,54,18.30
2016,06,05,06,55,18.30
2016,06,05,06,56,18.40
2016,06,05,06,57,18.40
2016,06,05,06,58,18.50
2016,06,05,06,59,18.60
2016,06,05,07,00,18.70
2016,06,05,07,01,18.80
2016,06,05,07,02,18.90
2016,06,05,07,03,19.00
2016,06,05,07,04,19.10
2016,06,05,07,05,19.20
2016,06,05,07,06,19.30
2016,06,05,07,07,19.40
2016,06,05,07,08,19.50
2016,06,05,07,09,19.60
2016,06,05,07,10,19.70
2016,06,05,07,11,19.80
2016,06,05,07,12,19.90
2016,06,05,07,13,20.00
2016,06,05,07,14,20.20
2016,06,05,07,15,20.20
2016,06,05,07,16,20.30
2016,06,05,07,17,20.40
2016,06,05,07,18,20.40
2016,06,05,07,19,20.50
2016,06,05,07,20,20.50
2016,06,05,07,21,20.60
2016,06,05,07,22,20.60
2016,06,05,07,23,20.70
2016,06,05,07,24,20.70
2016,06,05,07,25,20.80
2016,06,05,07,26,20.80
2016,06,05,07,27,20.90
2016,06,05,07,28,21.00
2016,06,05,07,29,21.10
2016,06,05,07,30,21.20
2016,06,05,07,31,21.40
2016,06,05,07,32,21.50
2016,06,05,07,33,21.60
2016,06,05,07,34,21.70
2016,06,05,07,35,21.90
2016,06,05,07,36,22.00
2016,06,05,07,37,22.10
2016,06,05,07,38,22.20
2016,06,05,07,39,22.30
2016,06,05,07,40,22.40
2016,06,05,07,41,22.50
2016,06,05,07,42,22.50
2016,06,05,07,43,22.60
2016,06,05,07,44,22.60
2016,06,05,07,45,22.70
2016,06,05,07,46,22.70
2016,06,05,07,47,22.70
2016,06,05,07,48,22.70
2016,06,05,07,49,22.70
2016,06,05,07,50,22.80
2016,06,05,07,51,22.80
2016,06,05,07,52,22.90
2016,06,05,07,53,23.00
2016,06,05,07,54,23.00
2016,06,05,07,55,23.20
2016,06,05,07,56,23.30
2016,06,05,07,57,23.40
2016,06,05,07,58,23.50
2016,06,05,07,59,23.60
2016,06,05,08,00,23.70
2016,06,05,08,01,23.80
2016,06,05,08,02,23.90
2016,06,05,08,03,24.00
2016,06,05,08,04,24.10
2016,06,05,08,05,24.10
2016,06,05,08,06,24.20
2016,06,05,08,07,24.30
2016,06,05,08,08,24.30
2016,06,05,08,09,24.30
2016,06,05,08,10,24.40
2016,06,05,08,11,24.40
2016,06,05,08,12,24.40
2016,06,05,08,13,24.40
2016,06,05,08,14,24.40
2016,06,05,08,15,24.40
2016,06,05,08,16,24.30
2016,06,05,08,17,24.30
2016,06,05,08,18,24.20
2016,06,05,08,19,24.10
2016,06,05,08,20,24.00
2016,06,05,08,21,23.90
2016,06,05,08,22,23.80
2016,06,05,08,23,23.80
2016,06,05,08,24,23.70
2016,06,05,08,25,23.70
2016,06,05,08,26,23.60
2016,06,05,08,27,23.60
2016,06,05,08,28,23.60
2016,06,05,08,29,23.60
2016,06,05,08,30,23.60
2016,06,05,08,31,23.70
2016,06,05,08,32,23.70
2016,06,05,08,33,23.80
2016,06,05,08,34,23.90
2016,06,05,08,35,24.00
2016,06,05,08,36,24.10
2016,06,05,08,37,24.20
2016,06,05,08,38,24.30
2016,06,05,08,39,24.30
2016,06,05,08,40,24.40
2016,06,05,08,41,24.50
2016,06,05,08,42,24.50
2016,06,05,08,43,24.60
2016,06,05,08,44,24.60
2016,06,05,08,45,24.60
2016,06,05,08,46,24.60
2016,06,05,08,47,24.50
2016,06,05,08,48,24.40
2016,06,05,08,49,24.40
2016,06,05,08,50,24.40
2016,06,05,08,51,24.40
2016,06,05,08,52,24.30
2016,06,05,08,53,24.40
2016,06,05,08,54,24.40
2016,06,05,08,55,24.40
2016,06,05,08,56,24.40
2016,06,05,08,57,24.40
2016,06,05,08,58,24.40
2016,06,05,08,59,24.40
2016,06,05,09,00,24.30
2016,06,05,09,01,24.30
2016,06,05,09,02,24.30
2016,06,05,09,03,24.30
2016,06,05,09,04,24.30
2016,06,05,09,05,24.40
2016,06,05,09,06,24.40
2016,06,05,09,07,24.50
2016,06,05,09,08,24.50
2016,06,05,09,09,24.60
2016,06,05,09,10,24.60
2016,06,05,09,11,24.50
2016,06,05,09,12,24.50
2016,06,05,09,13,24.40
2016,06,05,09,14,24.40
2016,06,05,09,15,24.30
2016,06,05,09,16,24.30
2016,06,05,09,17,24.30
2016,06,05,09,18,24.30
2016,06,05,09,19,24.30
2016,06,05,09,20,24.40
2016,06,05,09,21,24.40
2016,06,05,09,22,24.50
2016,06,05,09,23,24.60
2016,06,05,09,24,24.60
2016,06,05,09,25,24.70
2016,06,05,09,26,24.70
2016,06,05,09,27,24.70
2016,06,05,09,28,24.80
2016,06,05,09,29,24.80
2016,06,05,09,30,24.90
2016,06,05,09,31,24.90
2016,06,05,09,32,25.00
2016,06,05,09,33,25.10
2016,06,05,09,34,25.10
2016,06,05,09,35,25.20
2016,06,05,09,36,25.20
2016,06,05,09,37,25.30
2016,06,05,09,38,25.30
2016,06,05,09,39,25.40
2016,06,05,09,40,25.40
2016,06,05,09,41,25.40
2016,06,05,09,42,25.50
2016,06,05,09,43,25.50
2016,06,05,09,44,25.50
2016,06,05,09,45,25.50
2016,06,05,09,46,25.50
2016,06,05,09,47,25.40
2016,06,05,09,48,25.40
2016,06,05,09,49,25.40
2016,06,05,09,50,25.40
2016,06,05,09,51,25.50
2016,06,05,09,52,25.50
2016,06,05,09,53,25.50
2016,06,05,09,54,25.60
2016,06,05,09,55,25.60
2016,06,05,09,56,25.60
2016,06,05,09,57,25.60
2016,06,05,09,58,25.60
2016,06,05,09,59,25.60
2016,06,05,10,00,25.70
2016,06,05,10,01,25.70
2016,06,05,10,02,25.80
2016,06,05,10,03,25.80
2016,06,05,10,04,25.90
2016,06,05,10,05,25.90
2016,06,05,10,06,25.90
2016,06,05,10,07,25.90
2016,06,05,10,08,25.90
2016,06,05,10,09,25.80
2016,06,05,10,10,25.80
2016,06,05,10,11,25.80
2016,06,05,10,12,25.80
2016,06,05,10,13,25.80
2016,06,05,10,14,25.80
2016,06,05,10,15,25.80
2016,06,05,10,16,25.90
2016,06,05,10,17,25.90
2016,06,05,10,18,26.00
2016,06,05,10,19,26.00
2016,06,05,10,20,26.10
2016,06,05,10,21,26.10
2016,06,05,10,22,26.10
2016,06,05,10,23,26.10
2016,06,05,10,24,26.10
2016,06,05,10,25,26.20
2016,06,05,10,26,26.20
2016,06,05,10,27,26.30
2016,06,05,10,28,26.30
2016,06,05,10,29,26.30
2016,06,05,10,30,26.30
2016,06,05,10,31,26.20
2016,06,05,10,32,26.20
2016,06,05,10,33,26.10
2016,06,05,10,34,26.10
2016,06,05,10,35,26.00
2016,06,05,10,36,26.00
2016,06,05,10,37,26.00
2016,06,05,10,38,26.00
2016,06,05,10,39,26.10
2016,06,05,10,40,26.20
2016,06,05,10,41,26.20
2016,06,05,10,42,26.20
2016,06,05,10,43,26.30
2016,06,05,10,44,26.30
2016,06,05,10,45,26.30
2016,06,05,10,46,26.30
2016,06,05,10,47,26.30
2016,06,05,10,48,26.40
2016,06,05,10,49,26.40
2016,06,05,10,50,26.40
2016,06,05,10,51,26.30
2016,06,05,10,52,26.30
2016,06,05,10,53,26.30
2016,06,05,10,54,26.20
2016,06,05,10,55,26.20
2016,06,05,10,56,26.20
2016,06,05,10,57,26.20
2016,06,05,10,58,26.20
2016,06,05,10,59,26.30
2016,06,05,11,00,26.30
2016,06,05,11,01,26.30
2016,06,05,11,02,26.40
2016,06,05,11,03,26.40
2016,06,05,11,04,26.50
2016,06,05,11,05,26.60
2016,06,05,11,06,26.60
2016,06,05,11,07,26.60
2016,06,05,11,08,26.70
2016,06,05,11,09,26.80
2016,06,05,11,10,26.90
2016,06,05,11,11,26.90
2016,06,05,11,12,26.90
2016,06,05,11,13,26.90
2016,06,05,11,14,26.90
2016,06,05,11,15,26.90
2016,06,05,11,16,26.80
2016,06,05,11,17,26.80
2016,06,05,11,18,26.80
2016,06,05,11,19,26.70
2016,06,05,11,20,26.60
2016,06,05,11,21,26.60
2016,06,05,11,22,26.60
2016,06,05,11,23,26.60
2016,06,05,11,24,26.60
2016,06,05,11,25,26.70
2016,06,05,11,26,26.80
2016,06,05,11,27,26.80
2016,06,05,11,28,26.90
2016,06,05,11,29,27.00
2016,06,05,11,30,27.00
2016,06,05,11,31,27.00
2016,06,05,11,32,27.00
2016,06,05,11,33,27.00
2016,06,05,11,34,27.00
2016,06,05,11,35,26.90
2016,06,05,11,36,27.00
2016,06,05,11,37,27.00
2016,06,05,11,38,27.10
2016,06,05,11,39,27.10
2016,06,05,11,40,27.10
2016,06,05,11,41,27.10
2016,06,05,11,42,27.10
2016,06,05,11,43,27.20
2016,06,05,11,44,27.20
2016,06,05,11,45,27.30
2016,06,05,11,46,27.40
2016,06,05,11,47,27.40
2016,06,05,11,48,27.40
2016,06,05,11,49,27.30
2016,06,05,11,50,27.20
2016,06,05,11,51,27.20
2016,06,05,11,52,27.10
2016,06,05,11,53,27.10
2016,06,05,11,54,27.00
2016,06,05,11,55,27.00
2016,06,05,11,56,27.00
2016,06,05,11,57,27.10
2016,06,05,11,58,27.10
2016,06,05,11,59,27.10
2016,06,05,12,00,27.10
2016,06,05,12,01,27.10
2016,06,05,12,02,27.10
2016,06,05,12,03,27.20
2016,06,05,12,04,27.20
2016,06,05,12,05,27.30
2016,06,05,12,06,27.30
2016,06,05,12,07,27.40
2016,06,05,12,08,27.40
2016,06,05,12,09,27.40
2016,06,05,12,10,27.40
2016,06,05,12,11,27.40
2016,06,05,12,12,27.40
2016,06,05,12,13,27.40
2016,06,05,12,14,27.30
2016,06,05,12,15,27.30
2016,06,05,12,16,27.20
2016,06,05,12,17,27.20
2016,06,05,12,18,27.20
2016,06,05,12,19,27.20
2016,06,05,12,20,27.20
2016,06,05,12,21,27.20
2016,06,05,12,22,27.20
2016,06,05,12,23,27.30
2016,06,05,12,24,27.30
2016,06,05,12,25,27.40
2016,06,05,12,26,27.50
2016,06,05,12,27,27.60
2016,06,05,12,28,27.70
2016,06,05,12,29,27.70
2016,06,05,12,30,27.70
2016,06,05,12,31,27.80
2016,06,05,12,32,27.80
2016,06,05,12,33,27.90
2016,06,05,12,34,28.00
2016,06,05,12,35,28.10
2016,06,05,12,36,28.20
2016,06,05,12,37,28.10
2016,06,05,12,38,28.10
2016,06,05,12,39,28.00
2016,06,05,12,40,27.90
2016,06,05,12,41,27.90
2016,06,05,12,42,28.00
2016,06,05,12,43,28.10
2016,06,05,12,44,28.20
2016,06,05,12,45,28.40
2016,06,05,12,46,28.50
2016,06,05,12,47,28.60
2016,06,05,12,48,28.60
2016,06,05,12,49,28.60
2016,06,05,12,50,28.60
2016,06,05,12,51,28.70
2016,06,05,12,52,28.70
2016,06,05,12,53,28.80
2016,06,05,12,54,28.80
2016,06,05,12,55,28.80
2016,06,05,12,56,28.90
2016,06,05,12,57,28.90
2016,06,05,12,58,28.90
2016,06,05,12,59,29.00
2016,06,05,13,00,29.00
2016,06,05,13,01,29.00
2016,06,05,13,02,29.00
2016,06,05,13,03,29.00
2016,06,05,13,04,29.00
2016,06,05,13,05,29.00
2016,06,05,13,06,29.10
2016,06,05,13,07,29.20
2016,06,05,13,08,29.30
2016,06,05,13,09,29.30
2016,06,05,13,10,29.30
2016,06,05,13,11,29.30
2016,06,05,13,12,29.30
2016,06,05,13,13,29.30
2016,06,05,13,14,29.40
2016,06,05,13,15,29.40
2016,06,05,13,16,29.40
2016,06,05,13,17,29.30
2016,06,05,13,18,29.30
2016,06,05,13,19,29.30
2016,06,05,13,20,29.30
2016,06,05,13,21,29.30
2016,06,05,13,22,29.30
2016,06,05,13,23,29.30
2016,06,05,13,24,29.30
2016,06,05,13,25,29.20
2016,06,05,13,26,29.20
2016,06,05,13,27,29.10
2016,06,05,13,28,29.20
2016,06,05,13,29,29.20
2016,06,05,13,30,29.10
2016,06,05,13,31,29.10
2016,06,05,13,32,29.10
2016,06,05,13,33,29.10
2016,06,05,13,34,28.90
2016,06,05,13,35,28.80
2016,06,05,13,36,28.50
2016,06,05,13,37,28.30
2016,06,05,13,38,28.20
2016,06,05,13,39,28.00
2016,06,05,13,40,28.00
2016,06,05,13,41,27.90
2016,06,05,13,42,28.00
2016,06,05,13,43,28.00
2016,06,05,13,44,28.10
2016,06,05,13,45,28.10
2016,06,05,13,46,28.10
2016,06,05,13,47,28.00
2016,06,05,13,48,27.90
2016,06,05,13,49,27.80
2016,06,05,13,50,27.70
2016,06,05,13,51,27.60
2016,06,05,13,52,27.50
2016,06,05,13,53,27.40
2016,06,05,13,54,27.30
2016,06,05,13,55,27.30
2016,06,05,13,56,27.20
2016,06,05,13,57,27.10
2016,06,05,13,58,27.10
2016,06,05,13,59,27.10
2016,06,05,14,00,27.00
2016,06,05,14,01,27.00
2016,06,05,14,02,26.90
2016,06,05,14,03,26.90
2016,06,05,14,04,26.90
2016,06,05,14,05,27.00
2016,06,05,14,06,27.00
2016,06,05,14,07,26.90
2016,06,05,14,08,26.90
2016,06,05,14,09,27.00
2016,06,05,14,10,27.00
2016,06,05,14,11,27.10
2016,06,05,14,12,27.10
2016,06,05,14,13,27.10
2016,06,05,14,14,27.10
2016,06,05,14,15,27.20
2016,06,05,14,16,27.20
2016,06,05,14,17,27.20
2016,06,05,14,18,27.20
2016,06,05,14,19,27.30
2016,06,05,14,20,27.40
2016,06,05,14,21,27.40
2016,06,05,14,22,27.40
2016,06,05,14,23,27.50
2016,06,05,14,24,27.50
2016,06,05,14,25,27.60
2016,06,05,14,26,27.70
2016,06,05,14,27,27.80
2016,06,05,14,28,27.90
2016,06,05,14,29,27.90
2016,06,05,14,30,27.90
2016,06,05,14,31,27.90
2016,06,05,14,32,28.00
2016,06,05,14,33,28.00
2016,06,05,14,34,28.00
2016,06,05,14,35,28.10
2016,06,05,14,36,28.30
2016,06,05,14,37,28.40
2016,06,05,14,38,28.60
2016,06,05,14,39,28.70
2016,06,05,14,40,28.80
2016,06,05,14,41,29.00
2016,06,05,14,42,29.10
2016,06,05,14,43,29.30
2016,06,05,14,44,29.40
2016,06,05,14,45,29.50
2016,06,05,14,46,29.60
2016,06,05,14,47,29.60
2016,06,05,14,48,29.70
2016,06,05,14,49,29.70
2016,06,05,14,50,29.80
2016,06,05,14,51,29.90
2016,06,05,14,52,30.00
2016,06,05,14,53,30.00
2016,06,05,14,54,30.00
2016,06,05,14,55,29.90
2016,06,05,14,56,29.90
2016,06,05,14,57,29.80
2016,06,05,14,58,29.80
2016,06,05,14,59,29.80
2016,06,05,15,00,29.80
2016,06,05,15,01,29.80
2016,06,05,15,02,29.90
2016,06,05,15,03,30.00
2016,06,05,15,04,30.10
2016,06,05,15,05,30.20
2016,06,05,15,06,30.40
2016,06,05,15,07,30.50
2016,06,05,15,08,30.60
2016,06,05,15,09,30.60
2016,06,05,15,10,30.70
2016,06,05,15,11,30.70
2016,06,05,15,12,30.60
2016,06,05,15,13,30.50
2016,06,05,15,14,30.40
2016,06,05,15,15,30.40
2016,06,05,15,16,30.40
2016,06,05,15,17,30.30
2016,06,05,15,18,30.30
2016,06,05,15,19,30.20
2016,06,05,15,20,30.20
2016,06,05,15,21,30.10
2016,06,05,15,22,30.00
2016,06,05,15,23,29.90
2016,06,05,15,24,29.80
2016,06,05,15,25,29.70
2016,06,05,15,26,29.70
2016,06,05,15,27,29.70
2016,06,05,15,28,29.70
2016,06,05,15,29,29.70
2016,06,05,15,30,29.60
2016,06,05,15,31,29.50
2016,06,05,15,32,29.50
2016,06,05,15,33,29.50
2016,06,05,15,34,29.60
2016,06,05,15,35,29.70
2016,06,05,15,36,29.80
2016,06,05,15,37,29.80
2016,06,05,15,38,29.90
2016,06,05,15,39,29.90
2016,06,05,15,40,29.80
2016,06,05,15,41,29.80
2016,06,05,15,42,29.70
2016,06,05,15,43,29.70
2016,06,05,15,44,29.60
2016,06,05,15,45,29.60
2016,06,05,15,46,29.50
2016,06,05,15,47,29.50
2016,06,05,15,48,29.50
2016,06,05,15,49,29.50
2016,06,05,15,50,29.60
2016,06,05,15,51,29.70
2016,06,05,15,52,29.90
2016,06,05,15,53,29.90
2016,06,05,15,54,30.00
2016,06,05,15,55,30.10
2016,06,05,15,56,30.10
2016,06,05,15,57,30.10
2016,06,05,15,58,30.10
2016,06,05,15,59,30.10
2016,06,05,16,00,30.10
2016,06,05,16,01,30.10
2016,06,05,16,02,30.10
2016,06,05,16,03,30.10
2016,06,05,16,04,30.10
2016,06,05,16,05,30.10
2016,06,05,16,06,30.10
2016,06,05,16,07,30.10
2016,06,05,16,08,30.10
2016,06,05,16,09,30.10
2016,06,05,16,10,30.00
2016,06,05,16,11,30.00
2016,06,05,16,12,29.90
2016,06,05,16,13,29.80
2016,06,05,16,14,29.80
2016,06,05,16,15,29.80
2016,06,05,16,16,29.70
2016,06,05,16,17,29.70
2016,06,05,16,18,29.70
2016,06,05,16,19,29.70
2016,06,05,16,20,29.80
2016,06,05,16,21,29.80
2016,06,05,16,22,29.90
2016,06,05,16,23,29.90
2016,06,05,16,24,29.90
2016,06,05,16,25,29.90
2016,06,05,16,26,29.90
2016,06,05,16,27,29.90
2016,06,05,16,28,29.90
2016,06,05,16,29,29.90
2016,06,05,16,30,29.90
2016,06,05,16,31,29.90
2016,06,05,16,32,29.90
2016,06,05,16,33,29.90
2016,06,05,16,34,29.80
2016,06,05,16,35,29.80
2016,06,05,16,36,29.80
2016,06,05,16,37,29.80
2016,06,05,16,38,29.80
2016,06,05,16,39,29.70
2016,06,05,16,40,29.70
2016,06,05,16,41,29.60
2016,06,05,16,42,29.60
2016,06,05,16,43,29.50
2016,06,05,16,44,29.50
2016,06,05,16,45,29.40
2016,06,05,16,46,29.40
2016,06,05,16,47,29.40
2016,06,05,16,48,29.30
2016,06,05,16,49,29.30
2016,06,05,16,50,29.30
2016,06,05,16,51,29.40
2016,06,05,16,52,29.50
2016,06,05,16,53,29.50
2016,06,05,16,54,29.60
2016,06,05,16,55,29.70
2016,06,05,16,56,29.80
2016,06,05,16,57,29.80
2016,06,05,16,58,29.90
2016,06,05,16,59,30.00
2016,06,05,17,00,30.00
2016,06,05,17,01,30.10
2016,06,05,17,02,30.20
2016,06,05,17,03,30.30
2016,06,05,17,04,30.40
2016,06,05,17,05,30.50
2016,06,05,17,06,30.60
2016,06,05,17,07,30.60
2016,06,05,17,08,30.70
2016,06,05,17,09,30.70
2016,06,05,17,10,30.70
2016,06,05,17,11,30.60
2016,06,05,17,12,30.60
2016,06,05,17,13,30.60
2016,06,05,17,14,30.60
2016,06,05,17,15,30.60
2016,06,05,17,16,30.60
2016,06,05,17,17,30.60
2016,06,05,17,18,30.60
2016,06,05,17,19,30.60
2016,06,05,17,20,30.60
2016,06,05,17,21,30.60
2016,06,05,17,22,30.60